Location: Killam
(52.7910°N, 111.8608°W)
Time: 13:30:46
(UTC+00:00)

BlueWalker 3 - Pass Details

Date: 28 January 2026
Orbit: 450 x 461 km, 53.2° (Epoch: 11 February)

Event Time Altitude Azimuth Distance (km) Brightness Sun altitude
Rises 00:49:55 0° 234° (SW) 2,453 7.3 -7.1°
Reaches altitude 10° 00:52:06 10° 228° (SW) 1,581 5.8 -7.4°
Maximum altitude 00:55:31 46° 154° (SSE) 615 2.3 -7.9°
Enters shadow 00:58:47 11° 81° (E) 1,522 3.7 -8.4°
